Regional Weather Roundup
Issued by NWS Goodland, KS

Home | Current Version | Previous Version | Graphics & Text | Print | Product List | Glossary On
Versions: 1 2 3 4 5 6 7 8 9 10 11 12 13 14 15 16 17 18 19 20 21 22 23 24 25 26 27 28 29 30 31 32 33 34 35 36 37 38 39 40 41 42 43 44 45 46 47 48 49 50
000
ASUS43 KGLD 281208
RWRGLD

GOODLAND FORECAST AREA HOURLY WEATHER ROUNDUP
NATIONAL WEATHER SERVICE GOODLAND KS
500 AM MST SUN DEC 28 2014

...OFFICIAL OBSERVATIONS...

CITY           SKY/WX    TMP DP  RH WIND       PRES   REMARKS
GOODLAND KS    PTCLDY    15   9  76 SW9       30.02F
HILL CITY KS   PTCLDY    10   5  80 W5        30.11F
IMPERIAL NEB   PTCLDY    -1  -6  79 SW5       30.03F
MCCOOK NEB     CLEAR      2  -3  80 SW8       30.09S
AKRON CO       PTCLDY    10   5  80 SW5       29.94F
BURLINGTON CO  PTCLDY     7   3  84 SW8       29.99F
LIMON CO       PTCLDY     1  -4  79 CALM      29.95F
$$

...UNOFFICIAL OBSERVATIONS...

CITY           SKY/WX    TMP DP  RH WIND       PRES   REMARKS
COLBY KS       CLEAR     10   9  92 W8        30.06F
NORTON KS      CLEAR      3  -2  78 W7        30.08F
SHARON SPRINGS   N/A      9   6  86 W8          N/A
TRIBUNE KS     CLEAR     10   9  92 SW7       30.04F
KIT CARSON CO    N/A      8   4  84 MISG        N/A
YUMA CO          N/A     -1  -7  76 W6          N/A
$$


USA.gov is the U.S. government's official web portal to all federal, state and local government web resources and services.